Location: Del Amo
(33.8464°N, 118.2104°W)
Time: 19:54:27
(UTC+00:00)

S-56A Canister/Altair - Pass Details

Date: 19 September 2024
Orbit: 636 x 2487 km, 38.9° (Epoch: 14 October)

Event Time Altitude Azimuth Distance (km) Brightness Sun altitude
Rises 03:38:57 0° 282° (WNW) 3,288 12.3 -22.2°
Reaches altitude 10° 03:41:07 10° 287° (WNW) 2,506 11.3 -22.7°
Maximum altitude 03:46:59 59° 7° (N) 1,265 8.5 -23.8°
Enters shadow 03:50:20 35° 70° (ENE) 1,925 9.1 -24.5°
Drops below altitude 10° 03:55:50 10° 86° (E) 3,717 - -25.5°
Sets 03:59:42 0° 90° (E) 5,012 - -26.3°
